This is the latest recevied weather packets stored in our database for station/object W3AJR. If no packets are shown the sender has not sent any weather packets the latest 10 day(s).
| Time | Temp. | Humidity | Pressure | Rain* | Wind** | Luminosity | Snow |
|---|---|---|---|---|---|---|---|
| 1777641460 | 11.67° C | 57% | 1015.2 hPa | 0 mm | - | 49 W/m² | - |
| 1777641156 | 11.67° C | 60% | 1015.1 hPa | 0 mm | - | 49 W/m² | - |
| 1777640852 | 11.11° C | 64% | 1015.1 hPa | 0 mm | - | 49 W/m² | - |
| 1777640549 | 11.11° C | 62% | 1015.1 hPa | 0 mm | - | 49 W/m² | - |
| 1777640246 | 11.11° C | 63% | 1015.1 hPa | 0 mm | - | 48 W/m² | - |
| 1777639942 | 10.56° C | 63% | 1015.2 hPa | 0 mm | - | 49 W/m² | - |
| 1777639639 | 10.56° C | 64% | 1015.2 hPa | 0 mm | - | 53 W/m² | - |
| 1777639337 | 10.56° C | 65% | 1015 hPa | 0 mm | - | 63 W/m² | - |
| 1777639032 | 10.56° C | 66% | 1015.2 hPa | 0 mm | - | 75 W/m² | - |
| 1777638729 | 10° C | 66% | 1015.4 hPa | 0 mm | - | 53 W/m² | - |
| 1777638425 | 10° C | 68% | 1015.1 hPa | 0 mm | - | 47 W/m² | - |
| 1777638122 | 10° C | 68% | 1015.2 hPa | 0 mm | - | 46 W/m² | - |
| 1777637818 | 10° C | 71% | 1015.3 hPa | 0 mm | - | 43 W/m² | - |
| 1777637514 | 9.44° C | 71% | 1015.2 hPa | 0 mm | - | 42 W/m² | - |
| 1777637212 | 9.44° C | 72% | 1015.3 hPa | 0 mm | - | 36 W/m² | - |
| 1777636909 | 8.89° C | 73% | 1015.3 hPa | 0 mm | - | 49 W/m² | - |
| 1777636604 | 8.89° C | 76% | 1015.3 hPa | 0 mm | - | 44 W/m² | - |
| 1777636300 | 8.33° C | 77% | 1015.3 hPa | 0 mm | - | 38 W/m² | - |
| 1777635996 | 8.33° C | 78% | 1015.3 hPa | 0 mm | - | 36 W/m² | - |
| 1777635692 | 7.78° C | 78% | 1015.3 hPa | 0 mm | - | 32 W/m² | - |
| 1777635389 | 7.78° C | 79% | 1015.3 hPa | 0 mm | - | 29 W/m² | - |
| 1777635085 | 7.22° C | 84% | 1015.4 hPa | 0 mm | - | 33 W/m² | - |
| 1777634781 | 6.67° C | 85% | 1015.3 hPa | 0 mm | - | 32 W/m² | - |
| 1777634479 | 6.67° C | 87% | 1015.2 hPa | 0 mm | - | 35 W/m² | - |
| 1777634175 | 6.11° C | 90% | 1015 hPa | 0 mm | - | 37 W/m² | - |
* Rain latest hour (hover to see other rain measurements)
** Current wind speed in m/s (hover to see current wind gust speed)